Tracking 23645 objects as of 21-Sep-2021
HD Live streaming from Space Station
objects crossing your sky now

NINGXIA-1 2

Track NINGXIA-1 2 now!
10-day predictions


NORAD ID: 44780
Int'l Code: 2019-076B
Perigee: 888.4 km
Apogee: 901.8 km
Inclination: 45.0 °
Period: 102.7 minutes
Semi major axis: 7266 km
RCS: Unknown
Launch date: November 13, 2019
Source: People's Republic of China (PRC)
Launch site: Taiyaun Space Center, China (TSC)
aabbcc
Your satellite tracking list
Your tracking list is empty




NASA's NSSDC Master Catalog

Two Line Element Set (TLE):
1 44780U 19076B   21263.92229199 -.00000132  00000-0 -14275-5 0  9995
2 44780  45.0123 349.4779 0009206 248.2592 111.7253 14.01690951 95079
Source of the keplerian elements: AFSPC